Powrót do katalogu

HJ-2E

AktywnyNaukaSSO
NORAD 54035·PAYLOAD·🇨🇳 China

Wystrzelony Oct 12, 2022 z Taiyuan Satellite Launch Center

Loading…

Następne Przeloty (najbliższe 24 godziny)

TLE

ŚwieżeSource: Space-Track

Epoka: Sep 14, 2026, 14:37 UTC

1 54035U 22132A   26257.60929213  .00005585  00000-0  26204-3 0  9991
2 54035  97.3844 260.4004 0007389  71.9440 288.2599 15.20030386218026

Śledź HJ-2E w czasie rzeczywistym z AllMySat

Download on the App Store